Regional Weather Roundup
Issued by NWS

Home | Current Version | Previous Version | Text Only | Print | Product List | Glossary Off
Versions: 1 2 3 4 5 6 7 8 9 10 11 12 13 14 15 16 17 18 19 20 21 22 23 24 25 26 27 28 29 30 31 32 33 34 35 36 37 38 39 40 41 42 43 44 45 46 47 48 49 50

000
ASUS43 KDTX 230301
RWRMI
MICHIGAN HOURLY REGIONAL WEATHER ROUNDUP
NATIONAL WEATHER SERVICE DETROIT/PONTIAC MI
1100 PM EDT SAT APR 22 2017

NOTE: "FAIR" INDICATES FEW OR NO CLOUDS BELOW 12,000 FEET WITH NO
SIGNIFICANT WEATHER AND/OR OBSTRUCTION TO VISIBILITY.

MIZ047>049-052>055-059>063-066>070-074>076-081>083-230400-
SOUTHEAST LOWER MICHIGAN

CITY           SKY/WX    TMP DP  RH WIND       PRES   REMARKS
ADRIAN         CLEAR     43  37  79 N5        30.15R
ALMA           CLEAR     46  33  60 CALM      30.14S
ANN ARBOR      CLEAR     43  36  76 CALM      30.14R
BAD AXE        CLEAR     38  34  87 CALM      30.15R
CARO           CLEAR     40  32  74 CALM      30.13S
DETROIT CITY   CLEAR     44  28  53 E3        30.15R
DETROIT        PTCLDY    49  31  49 CALM      30.15S
FLINT          CLEAR     40  33  76 S6        30.15R
GROSSE ILE     CLEAR     45  33  62 E5        30.14R
HILLSDALE      CLEAR     43  32  65 CALM      30.14R
HOWELL         CLEAR     46  30  52 CALM      30.14S

CITY           SKY/WX    TMP DP  RH WIND       PRES   REMARKS
JACKSON        CLEAR     48  35  60 CALM      30.14R
LAMBERTVILLE   CLEAR     42  37  82 CALM      30.14R
LANSING        CLEAR     46  30  53 CALM      30.14S
LAPEER         FAIR      40  36  84 CALM      30.15R
MASON          CLEAR     44  37  77 CALM      30.14S
MONROE         CLEAR     44  39  83 N8        30.14R
MT. CLEMENS    PTCLDY    43  30  59 N6        30.13R
PONTIAC        PTCLDY    44  31  60 CALM      30.13S
PORT HOPE        N/A     39  33  79 S3        30.12S
PORT HURON     CLEAR     36  32  87 CALM      30.16R
TRI CITIES     CLEAR     50  34  54 S3        30.14R
MIDLAND        FAIR      44  35  70 CALM      30.13S
TROY           CLEAR     49  30  49 CALM      30.16R
SAGINAW HB     CLEAR     45  34  65 CALM      30.13S
$$
MIZ043>046-050>051-056>058-064>065-071>073-077>080-230400-
SOUTHWEST LOWER MICHIGAN

CITY           SKY/WX    TMP DP  RH WIND       PRES   REMARKS
BATTLE CREEK   CLEAR     46  31  55 CALM      30.15R
BENTON HARBOR  CLEAR     39  29  67 CALM      30.16R
BIG RAPIDS     CLEAR     48  22  36 NW5       30.13S
COLDWATER      CLEAR     47  32  55 CALM      30.14R
FREMONT        FAIR      47  23  39 CALM      30.15S
HOLLAND        CLEAR     43  36  76 CALM      30.16R
GRAND RAPIDS   CLEAR     51  32  48 NW6       30.14R
IONIA          FAIR      49  34  58 SW5       30.14R
KALAMAZOO      CLEAR     47  29  49 NW5       30.16R
LUDINGTON      CLEAR     38  32  79 CALM      30.13F
MARSHALL       CLEAR     45  31  58 CALM      30.14S
MOUNT PLEASANT CLEAR     51  33  49 S3        30.12S
MUSKEGON       PTCLDY    50  28  42 N3        30.15S
SOUTH HAVEN    CLEAR     39  29  65 CALM      30.17R
$$
MIZ016>042-230400-
NORTHERN LOWER MICHIGAN

CITY           SKY/WX    TMP DP  RH WIND       PRES   REMARKS
ALPENA         CLEAR     40  28  62 S6        30.11F
BEAVER ISLAND  CLEAR     50  19  29 S8        30.07F
BELLAIRE       CLEAR     38  34  85 CALM      30.11F
CADILLAC       CLEAR     38  29  69 SW3       30.11F
CHARLEVOIX     CLEAR     49  23  35 S6        30.12F
FRANKFORT      CLEAR     40  27  60 CALM      30.12S
GAYLORD        CLEAR     46  22  38 CALM      30.10S
GRAYLING       CLEAR     34  29  82 CALM      30.11F
HARBOR SPRINGS CLEAR     40  29  63 CALM      30.09F
HOUGHTON LAKE  CLEAR     46  28  49 CALM      30.12S
MANISTEE       CLEAR     38  30  73 CALM      30.13S
OSCODA         CLEAR     36  26  68 W3        30.13S
PELLSTON       CLEAR     38  28  67 CALM      30.09S
ROGERS CITY    CLEAR     47  27  45 S7        30.10S
TRAVERSE CITY  CLEAR     43  32  65 S3        30.10S
$$
MIZ007>008-015-230400-
EASTERN UPPER MICHIGAN

CITY           SKY/WX    TMP DP  RH WIND       PRES   REMARKS
KINROSS        CLEAR     44  24  45 SW5       30.07F
MACKINAC ISLAN CLEAR     45  25  45 SW7       30.07F
NEWBERRY       CLOUDY    41  28  60 SW7       30.05F
S. S. MARIE    CLOUDY    48  27  44 SW7       30.06S
MUNISING         N/A     50  28  42 S9        30.01F
$$
MIZ004>006-011>014-085-230400-
CENTRAL UPPER MICHIGAN

CITY           SKY/WX    TMP DP  RH WIND       PRES   REMARKS
MANISTIQUE     CLEAR     40  34  81 S6        30.04F
ESCANABA       CLEAR     49  36  61 S16       30.03F
MENOMINEE      CLEAR     53  33  46 SW9       30.07F
SAWYER-GWINN   CLEAR     48  30  49 S6        30.02S
$$
MIZ001>003-009>011-084-230400-
WESTERN UPPER MICHIGAN

CITY           SKY/WX    TMP DP  RH WIND       PRES   REMARKS
IRON MOUNTAIN  CLEAR     56  26  31 SW7       30.02F
HOUGHTON       MOCLDY    49  38  65 N12       30.03R
COPPER HARBOR    N/A     44  39  82 N12       30.04R
IRONWOOD       MOCLDY    52  39  61 CALM      30.07R
$$

ABBREVIATIONS USED IN REMARKS
   TC - TEMPERATURE IN CELSIUS
  WCI - WIND CHILL INDEX
   HX - HEAT INDEX
  VSB - VISIBILITY




USA.gov is the U.S. government's official web portal to all federal, state and local government web resources and services.